ISS DEB

Last updated on May 17, 2021, 12:02 a.m. UTC

1 47853U 98067RZ  21136.39461656  .00001274  00000-0  30890-4 0  9998
2 47853  51.6435 139.8336 0002699 348.0265  12.0659 15.49383612 10297

Satellite is not in orbit.